FW6148 Weather Reports


Display with metric or nautical units.
time (UTC)temp
F
wind
direction
speed
MPH
gust
MPH
rain 1hr
in
rain 24hr
in
rain mn
in
humidity
%
barometer
mb
20260506215526 55 360 2.0 7.0 0.00 0.00 0.00 32 1011.9
20260506215026 54 0 2.0 6.0 0.00 0.00 0.00 38 1012.0
20260506214539 54 0 2.0 7.0 0.00 0.00 0.00 34 1012.1
20260506214030 53 360 4.0 8.0 0.00 0.00 0.00 34 1012.3
20260506213527 53 186 4.0 9.0 0.00 0.00 0.00 36 1012.3
20260506213037 53 227 1.0 9.0 0.00 0.00 0.00 35 1012.4
20260506212527 53 227 5.0 9.0 0.00 0.00 0.00 34 1012.5
20260506212027 53 258 3.0 11.0 0.00 0.00 0.00 35 1012.8
20260506211542 53 0 1.0 11.0 0.00 0.00 0.00 36 1012.9
20260506211027 52 360 1.0 6.0 0.00 0.00 0.00 38 1013.0
20260506210527 53 25 3.0 6.0 0.00 0.00 0.00 36 1013.0
20260506210037 52 360 0.0 6.0 0.00 0.00 0.00 34 1013.2
20260506205527 52 0 2.0 8.0 0.00 0.00 0.00 36 1013.3
20260506205027 52 48 4.0 8.0 0.00 0.00 0.00 36 1013.4
20260506204541 51 159 4.0 8.0 0.00 0.00 0.00 36 1013.3
20260506204028 51 96 2.0 10.0 0.00 0.00 0.00 40 1013.4
20260506203526 50 125 3.0 10.0 0.00 0.00 0.00 35 1013.5
20260506203040 51 46 3.0 10.0 0.00 0.00 0.00 34 1013.4
20260506202527 51 38 2.0 10.0 0.00 0.00 0.00 38 1013.5
20260506202028 51 37 2.0 10.0 0.00 0.00 0.00 35 1013.5
20260506201539 51 41 4.0 10.0 0.00 0.00 0.00 35 1013.5
20260506201025 52 42 2.0 7.0 0.00 0.00 0.00 42 1013.5
20260506200524 51 252 4.0 7.0 0.00 0.00 0.00 38 1013.6
20260506200037 51 289 1.0 6.0 0.00 0.00 0.00 35 1013.8
20260506195524 51 9 3.0 10.0 0.00 0.00 0.00 35 1013.9
20260506195025 51 333 3.0 13.0 0.00 0.00 0.00 33 1014.0
20260506194546 51 26 6.0 13.0 0.00 0.00 0.00 38 1014.0
20260506194028 52 46 4.0 11.0 0.00 0.00 0.00 39 1014.0
20260506193525 51 123 2.0 8.0 0.00 0.00 0.00 36 1014.1
20260506193048 51 50 2.0 5.0 0.00 0.00 0.00 37 1014.2
20260506192525 51 299 1.0 8.0 0.00 0.00 0.00 34 1014.3
20260506192025 51 360 2.0 8.0 0.00 0.00 0.00 39 1014.3
20260506191539 51 222 4.0 8.0 0.00 0.00 0.00 35 1014.3
20260506191028 51 252 2.0 8.0 0.00 0.00 0.00 37 1014.4
20260506190524 50 269 3.0 11.0 0.00 0.00 0.00 37 1014.4
20260506190039 50 306 3.0 11.0 0.00 0.00 0.00 36 1014.5
20260506185527 50 232 4.0 11.0 0.00 0.00 0.00 34 1014.6
20260506185025 50 249 2.0 10.0 0.00 0.00 0.00 37 1014.7
20260506184543 49 301 4.0 10.0 0.00 0.00 0.00 36 1014.7
20260506184027 49 342 4.0 10.0 0.00 0.00 0.00 36 1014.9
20260506183527 49 0 2.0 9.0 0.00 0.00 0.00 34 1015.1
20260506183042 49 318 3.0 9.0 0.00 0.00 0.00 37 1015.2
20260506182525 49 347 3.0 9.0 0.00 0.00 0.00 35 1015.3
20260506182028 49 336 2.0 9.0 0.00 0.00 0.00 37 1015.2
20260506181550 49 104 4.0 9.0 0.00 0.00 0.00 40 1015.3
20260506181024 48 0 2.0 6.0 0.00 0.00 0.00 39 1015.4
20260506180526 48 257 2.0 6.0 0.00 0.00 0.00 35 1015.5
20260506180040 47 169 3.0 8.0 0.00 0.00 0.00 35 1015.6
20260506175530 47 360 2.0 9.0 0.00 0.00 0.00 35 1015.7
20260506175024 48 167 5.0 10.0 0.00 0.00 0.00 37 1015.8
20260506174537 47 129 3.0 11.0 0.00 0.00 0.00 36 1015.8
20260506174025 47 107 5.0 14.0 0.00 0.00 0.00 40 1016.0
20260506173525 48 360 7.0 14.0 0.00 0.00 0.00 36 1016.0
20260506173047 47 93 7.0 14.0 0.00 0.00 0.00 39 1016.1
20260506172526 47 51 3.0 8.0 0.00 0.00 0.00 38 1016.1
20260506172024 47 341 1.0 11.0 0.00 0.00 0.00 38 1016.1
20260506171549 46 116 3.0 16.0 0.00 0.00 0.00 36 1016.2
20260506171025 46 360 8.0 16.0 0.00 0.00 0.00 40 1016.3
20260506170525 47 360 7.0 13.0 0.00 0.00 0.00 38 1016.3
20260506170042 46 49 7.0 12.0 0.00 0.00 0.00 39 1016.3
20260506165525 45 360 6.0 12.0 0.00 0.00 0.00 40 1016.4
20260506165025 45 103 7.0 14.0 0.00 0.00 0.00 39 1016.4
20260506164538 45 360 6.0 14.0 0.00 0.00 0.00 37 1016.4
20260506164028 45 360 4.0 12.0 0.00 0.00 0.00 40 1016.3
20260506163524 45 83 5.0 12.0 0.00 0.00 0.00 39 1016.4
20260506163039 45 93 3.0 12.0 0.00 0.00 0.00 39 1016.4
20260506162525 45 360 5.0 12.0 0.00 0.00 0.00 39 1016.6
20260506162025 45 360 7.0 15.0 0.00 0.00 0.00 41 1016.6
20260506161543 44 360 7.0 15.0 0.00 0.00 0.00 40 1016.6
20260506161024 44 360 5.0 13.0 0.00 0.00 0.00 40 1016.8
20260506160524 44 360 4.0 13.0 0.00 0.00 0.00 41 1016.8
20260506160057 44 360 5.0 12.0 0.00 0.00 0.00 43 1016.8
20260506155523 43 78 6.0 16.0 0.00 0.00 0.00 39 1016.9
20260506155024 43 101 10.0 16.0 0.00 0.00 0.00 41 1017.0
20260506154548 43 103 7.0 13.0 0.00 0.00 0.00 42 1017.0
20260506154025 42 110 4.0 13.0 0.00 0.00 0.00 44 1017.2
20260506153525 43 78 6.0 13.0 0.00 0.00 0.00 44 1017.3
20260506153037 42 53 6.0 13.0 0.00 0.00 0.00 43 1017.2
20260506152524 42 15 4.0 11.0 0.00 0.00 0.00 44 1017.2
20260506152024 42 61 5.0 11.0 0.00 0.00 0.00 45 1017.2
20260506151537 42 115 4.0 9.0 0.00 0.00 0.00 45 1017.3
20260506151024 41 52 3.0 9.0 0.00 0.00 0.00 43 1017.4
20260506150524 41 0 1.0 7.0 0.00 0.00 0.00 47 1017.3
20260506150036 41 117 2.0 8.0 0.00 0.00 0.00 45 1017.3
20260506145525 41 173 4.0 8.0 0.00 0.00 0.00 45 1017.4
20260506145025 40 360 3.0 6.0 0.00 0.00 0.00 48 1017.5
20260506144543 40 360 3.0 5.0 0.00 0.00 0.00 49 1017.5
20260506144024 39 0 0.0 5.0 0.00 0.00 0.00 48 1017.6
20260506143525 39 360 0.0 4.0 0.00 0.00 0.00 50 1017.6
20260506143039 38 0 1.0 4.0 0.00 0.00 0.00 52 1017.7
20260506142525 38 119 2.0 4.0 0.00 0.00 0.00 51 1017.8
20260506142025 38 360 1.0 4.0 0.00 0.00 0.00 52 1017.7
20260506141538 38 146 0.0 4.0 0.00 0.00 0.00 52 1017.8
20260506141027 37 0 0.0 0.0 0.00 0.00 0.00 54 1017.8
20260506140524 36 0 0.0 0.0 0.00 0.00 0.00 57 1017.8
20260506140038 35 0 0.0 0.0 0.00 0.00 0.00 60 1017.9
20260506135524 33 0 0.0 0.0 0.00 0.00 0.00 65 1017.8
20260506135025 32 0 0.0 0.0 0.00 0.00 0.00 68 1017.8
20260506134535 31 0 0.0 0.0 0.00 0.00 0.00 73 1017.8
20260506134024 30 0 0.0 0.0 0.00 0.00 0.00 74 1017.9
20260506133527 28 0 0.0 0.0 0.00 0.00 0.00 75 1017.8
20260506133040 27 0 0.0 0.0 0.00 0.00 0.00 77 1017.9
20260506132525 25 0 0.0 0.0 0.00 0.00 0.00 80 1017.8
20260506132024 23 0 0.0 0.0 0.00 0.00 0.00 80 1017.8
20260506131554 22 0 0.0 0.0 0.00 0.00 0.00 80 1017.7
20260506131024 21 0 0.0 0.0 0.00 0.00 0.00 80 1017.8
20260506130527 21 0 0.0 0.0 0.00 0.00 0.00 80 1017.8
20260506130041 20 0 0.0 0.0 0.00 0.00 0.00 80 1017.8
20260506125526 20 0 0.0 1.0 0.00 0.00 0.00 81 1017.7
20260506125025 19 0 0.0 3.0 0.00 0.00 0.00 81 1017.6
20260506124538 19 0 0.0 3.0 0.00 0.00 0.00 81 1017.6
20260506124024 18 0 0.0 3.0 0.00 0.00 0.00 80 1017.7
20260506123526 18 360 0.0 2.0 0.00 0.00 0.00 79 1017.6
20260506123038 18 360 1.0 2.0 0.00 0.00 0.00 80 1017.5
20260506122524 18 360 1.0 3.0 0.00 0.00 0.00 80 1017.5
20260506122025 18 0 1.0 3.0 0.00 0.00 0.00 82 1017.6
20260506121542 17 360 1.0 3.0 0.00 0.00 0.00 82 1017.6
20260506121025 17 360 1.0 3.0 0.00 0.00 0.00 84 1017.6
20260506120527 16 0 0.0 0.0 0.00 0.00 0.00 82 1017.4
20260506120040 16 0 0.0 0.0 0.00 0.00 0.00 80 1017.4
20260506115525 17 0 0.0 0.0 0.00 0.00 0.00 81 1017.3
20260506115023 17 0 0.0 0.0 0.00 0.00 0.00 81 1017.2
20260506114538 17 0 0.0 0.0 0.00 0.00 0.00 81 1017.3
20260506114026 16 0 0.0 2.0 0.00 0.00 0.00 81 1017.2
20260506113525 17 0 0.0 2.0 0.00 0.00 0.00 79 1017.2
20260506113038 17 360 0.0 3.0 0.00 0.00 0.00 77 1017.2
20260506112524 18 0 1.0 3.0 0.00 0.00 0.00 79 1017.1
20260506112024 18 360 1.0 3.0 0.00 0.00 0.00 81 1017.2
20260506111538 17 360 1.0 3.0 0.00 0.00 0.00 79 1017.1
20260506111028 18 0 0.0 2.0 0.00 0.00 0.00 77 1017.2
20260506110527 18 0 1.0 2.0 0.00 0.00 0.00 80 1017.2
20260506110041 18 360 1.0 3.0 0.00 0.00 0.00 80 1017.2
20260506105524 18 360 1.0 3.0 0.00 0.00 0.00 79 1017.3
20260506105028 18 360 1.0 4.0 0.00 0.00 0.00 80 1017.3
20260506104547 18 360 1.0 4.0 0.00 0.00 0.00 81 1017.3
20260506104025 18 360 2.0 3.0 0.00 0.00 0.00 82 1017.4
20260506103524 17 360 1.0 3.0 0.00 0.00 0.00 80 1017.2
20260506103040 17 360 0.0 3.0 0.00 0.00 0.00 81 1017.3
20260506102524 18 360 1.0 3.0 0.00 0.00 0.00 78 1017.3
20260506102023 18 0 1.0 4.0 0.00 0.00 0.00 82 1017.4
20260506101538 17 360 1.0 4.0 0.00 0.00 0.00 82 1017.3
20260506101024 17 360 2.0 4.0 0.00 0.00 0.00 80 1017.4
20260506100525 17 0 0.0 0.0 0.00 0.00 0.00 78 1017.3
20260506100045 18 0 0.0 2.0 0.00 0.00 0.00 79 1017.4
20260506095527 18 0 0.0 2.0 0.00 0.00 0.00 80 1017.5
20260506095025 18 360 1.0 3.0 0.00 0.00 0.00 81 1017.4
20260506094554 18 360 1.0 3.0 0.00 0.00 0.00 80 1017.3
20260506094028 18 360 1.0 3.0 0.00 0.00 0.00 79 1017.4
20260506093524 19 360 1.0 3.0 0.00 0.00 0.00 78 1017.3
20260506093041 19 360 1.0 3.0 0.00 0.00 0.00 78 1017.4
20260506092524 19 360 1.0 3.0 0.00 0.00 0.00 79 1017.4
20260506092026 19 360 1.0 4.0 0.00 0.00 0.00 79 1017.4
20260506091539 19 360 2.0 4.0 0.00 0.00 0.00 79 1017.5
20260506091025 19 360 1.0 4.0 0.00 0.00 0.00 79 1017.5
20260506090524 19 360 2.0 4.0 0.00 0.00 0.00 81 1017.5
20260506090038 18 360 1.0 4.0 0.00 0.00 0.00 81 1017.5
20260506085524 18 0 0.0 2.0 0.00 0.00 0.00 80 1017.5
20260506085024 18 360 1.0 2.0 0.00 0.00 0.00 80 1017.6
20260506084542 18 360 1.0 3.0 0.00 0.00 0.00 78 1017.6
20260506084024 19 0 1.0 3.0 0.00 0.00 0.00 80 1017.6
20260506083524 19 360 1.0 4.0 0.00 0.00 0.00 78 1017.6
20260506083038 19 360 1.0 4.0 0.00 0.00 0.00 78 1017.6
20260506082530 20 360 2.0 4.0 0.00 0.00 0.00 78 1017.5
20260506082027 20 360 2.0 4.0 0.00 0.00 0.00 79 1017.6
20260506081544 20 360 2.0 4.0 0.00 0.00 0.00 79 1017.6
20260506081025 20 360 2.0 4.0 0.00 0.00 0.00 79 1017.6
20260506080527 20 360 0.0 3.0 0.00 0.00 0.00 79 1017.6
20260506073525 20 360 1.0 3.0 0.00 0.00 0.00 76 1017.8
20260506073040 21 360 1.0 3.0 0.00 0.00 0.00 76 1017.8
20260506072527 21 360 1.0 3.0 0.00 0.00 0.00 78 1017.9
20260506072024 21 360 1.0 3.0 0.00 0.00 0.00 78 1017.9
20260506071542 21 360 2.0 3.0 0.00 0.00 0.00 78 1018.0
20260506071024 21 360 1.0 4.0 0.00 0.00 0.00 79 1017.9
20260506070524 20 360 2.0 4.0 0.00 0.00 0.00 79 1017.9
20260506062024 21 360 1.0 3.0 0.00 0.00 0.00 78 1017.9
20260506061539 21 360 1.0 3.0 0.00 0.00 0.00 76 1017.9
20260506061027 22 360 1.0 3.0 0.00 0.00 0.00 75 1017.8
20260506060527 22 360 2.0 3.0 0.00 0.00 0.00 76 1017.9
20260506051024 24 360 1.0 4.0 0.00 0.00 0.00 72 1017.7
20260506050524 25 360 2.0 4.0 0.00 0.00 0.00 71 1017.6
20260506045025 26 360 2.0 4.0 0.00 0.00 0.00 70 1017.6
20260506044542 26 360 2.0 4.0 0.00 0.00 0.00 69 1017.6
20260506044023 26 360 2.0 4.0 0.00 0.00 0.00 69 1017.5
20260506043524 27 360 2.0 3.0 0.00 0.00 0.00 70 1017.5
20260506043042 27 360 1.0 3.0 0.00 0.00 0.00 70 1017.5
20260506042524 27 360 1.0 3.0 0.00 0.00 0.00 70 1017.6
20260506042025 28 0 0.0 3.0 0.00 0.00 0.00 70 1017.6
20260506041539 29 360 2.0 3.0 0.00 0.00 0.00 68 1017.6
20260506041025 30 360 0.0 2.0 0.00 0.00 0.00 65 1017.5
20260506040529 30 0 0.0 0.0 0.00 0.00 0.00 63 1017.5
20260506040044 31 0 0.0 0.0 0.00 0.00 0.00 61 1017.6
20260506035525 31 0 0.0 0.0 0.00 0.00 0.00 60 1017.5
20260506035025 32 0 0.0 0.0 0.00 0.00 0.00 58 1017.5
20260506034538 32 0 0.0 1.0 0.00 0.00 0.00 58 1017.5
20260506034024 33 0 0.0 3.0 0.00 0.00 0.00 57 1017.6
20260506033525 34 0 0.0 5.0 0.00 0.00 0.00 56 1017.5
20260506033037 35 360 1.0 8.0 0.00 0.00 0.00 53 1017.4
20260506032523 35 360 3.0 8.0 0.00 0.00 0.00 51 1017.3
20260506032024 36 360 4.0 8.0 0.00 0.00 0.00 50 1017.3
20260506031548 36 360 4.0 9.0 0.00 0.00 0.00 51 1017.3
20260506031025 36 360 4.0 9.0 0.00 0.00 0.00 52 1017.2
20260506030524 35 360 2.0 5.0 0.00 0.00 0.00 54 1017.0
20260506030040 35 360 1.0 3.0 0.00 0.00 0.00 56 1017.0
20260506025525 36 360 1.0 4.0 0.00 0.00 0.00 55 1016.9
20260506025028 36 98 1.0 11.0 0.00 0.00 0.00 55 1016.7
20260506024546 37 98 3.0 11.0 0.00 0.00 0.00 51 1016.7
20260506024024 37 86 5.0 10.0 0.00 0.00 0.00 50 1016.4
20260506023526 37 100 5.0 10.0 0.00 0.00 0.00 49 1016.4
20260506023038 37 124 5.0 10.0 0.00 0.00 0.00 49 1016.2
20260506022528 37 360 4.0 11.0 0.00 0.00 0.00 48 1016.2
20260506022023 37 360 5.0 11.0 0.00 0.00 0.00 49 1016.1
20260506021536 37 360 5.0 11.0 0.00 0.00 0.00 50 1016.0
20260506021026 37 360 5.0 11.0 0.00 0.00 0.00 50 1015.9
20260506020525 38 106 4.0 11.0 0.00 0.00 0.00 50 1015.8
20260506020040 38 360 6.0 12.0 0.00 0.00 0.00 48 1015.8
20260506015527 38 360 6.0 14.0 0.00 0.00 0.00 47 1015.7
20260506015025 38 360 8.0 15.0 0.00 0.00 0.00 48 1015.7
20260506014541 38 360 9.0 15.0 0.00 0.00 0.00 47 1015.7
20260506014024 38 360 8.0 14.0 0.00 0.00 0.00 47 1015.6
20260506013525 38 360 8.0 12.0 0.00 0.00 0.00 48 1015.5
20260506013038 38 360 5.0 12.0 0.00 0.00 0.00 49 1015.6
20260506012523 38 360 6.0 12.0 0.00 0.00 0.00 49 1015.6
20260506012026 38 99 7.0 16.0 0.00 0.00 0.00 48 1015.5
20260506011543 39 105 7.0 16.0 0.00 0.00 0.00 48 1015.5
20260506011025 39 98 10.0 17.0 0.00 0.00 0.00 47 1015.4
20260506010525 40 118 10.0 17.0 0.00 0.00 0.00 47 1015.3
20260506010041 40 106 10.0 15.0 0.00 0.00 0.00 47 1015.2
20260506005525 40 360 9.0 15.0 0.00 0.00 0.00 48 1015.2
20260506005027 40 360 8.0 14.0 0.00 0.00 0.00 49 1015.1
20260506004540 40 360 5.0 17.0 0.00 0.00 0.00 50 1015.0
20260506004028 40 360 10.0 17.0 0.00 0.00 0.00 49 1014.9
20260506003529 40 360 11.0 17.0 0.00 0.00 0.00 47 1014.9
20260506003040 41 360 8.0 20.0 0.00 0.00 0.00 48 1014.9
20260506002527 41 360 10.0 20.0 0.00 0.00 0.00 48 1014.7
20260506002027 41 360 12.0 20.0 0.00 0.00 0.00 48 1014.7
20260506001540 40 116 10.0 17.0 0.00 0.00 0.00 48 1014.6
20260506001028 40 360 9.0 19.0 0.00 0.00 0.00 49 1014.6
20260506000528 41 360 11.0 19.0 0.00 0.00 0.00 48 1014.5
20260506000037 41 360 11.0 18.0 0.00 0.00 0.00 49 1014.4
20260505235530 42 360 9.0 22.0 0.00 0.00 0.00 50 1014.4
20260505235030 44 360 13.0 22.0 0.00 0.00 0.00 46 1014.3
20260505234546 45 360 10.0 18.0 0.00 0.00 0.00 47 1014.2
20260505234031 45 360 10.0 21.0 0.00 0.00 0.00 47 1014.1
20260505233527 44 360 12.0 21.0 0.00 0.00 0.00 48 1014.1
20260505233038 43 360 10.0 18.0 0.00 0.00 0.00 49 1014.1
20260505232527 43 360 9.0 18.0 0.00 0.00 0.00 50 1014.1
20260505232027 44 360 7.0 19.0 0.00 0.00 0.00 51 1014.2
20260505231549 44 360 11.0 19.0 0.00 0.00 0.00 58 1014.1
20260505231027 43 360 7.0 15.0 0.00 0.00 0.00 60 1014.1
20260505230527 42 360 7.0 17.0 0.00 0.00 0.00 61 1014.2
20260505230050 42 360 8.0 17.0 0.00 0.00 0.00 58 1014.1
20260505225528 41 360 10.0 17.0 0.00 0.00 0.00 60 1014.1
20260505225030 40 96 9.0 17.0 0.00 0.00 0.00 56 1014.0
20260505224540 39 92 4.0 19.0 0.00 0.00 0.00 60 1014.0
20260505224027 39 112 10.0 19.0 0.00 0.00 0.00 58 1014.0
20260505223530 40 85 13.0 19.0 0.00 0.00 0.00 59 1014.0
20260505223037 41 33 9.0 21.0 0.00 0.00 0.00 61 1014.0
20260505222527 41 87 10.0 21.0 0.00 0.00 0.00 57 1013.9
20260505222028 42 85 12.0 20.0 0.00 0.00 0.00 53 1014.0
20260505221539 43 109 10.0 20.0 0.00 0.00 0.00 55 1013.9
20260505221034 43 65 9.0 20.0 0.00 0.00 0.00 62 1013.8
20260505220528 42 92 9.0 24.0 0.00 0.00 0.00 59 1014.1
20260505220044 41 74 8.0 24.0 0.00 0.00 0.00 62 1014.1